OAL822 SCBA-SAZB

Flight info

Callsign OAL822
Flight time 2h 7m
Altitude 37000
Route OPURA3J OPURA DCT DAKAX DCT PUBLO DCT TRE UT693 SANBU SANBU2Q
Aircraft B738/M-SDE2E3FGHIRWXY/LB1

Departure

Time 2026-05-09 09:06
Airport Balmaceda Airport (SCBA)

Arrival

Time 2026-05-09 11:13
Airport Comandante Espora Airport (SAZB)
Time Latitude Longitude Altitude Speed Heading
2026-05-09 09:00 -45.91412 -71.70432 1724 ft 0 kts 99°
2026-05-09 09:05 -45.91412 -71.70431 1725 ft 0 kts 99°
2026-05-09 09:05 -45.91452 -71.70094 1720 ft 69 kts 100°
2026-05-09 09:05 -45.91573 -71.69103 1706 ft 130 kts 99°
2026-05-09 09:06 -45.91772 -71.67577 1686 ft 181 kts 103°
2026-05-09 09:06 -45.91989 -71.65688 2142 ft 189 kts 96°
2026-05-09 09:06 -45.92075 -71.63792 2854 ft 193 kts 92°
2026-05-09 09:06 -45.92104 -71.61840 3723 ft 196 kts 89°
2026-05-09 09:07 -45.92097 -71.59892 4489 ft 194 kts 89°
2026-05-09 09:07 -45.91796 -71.57968 4861 ft 209 kts 53°
2026-05-09 09:07 -45.90628 -71.56756 5042 ft 217 kts
2026-05-09 09:07 -45.89118 -71.56878 5200 ft 226 kts 336°
2026-05-09 09:08 -45.87763 -71.58000 5407 ft 237 kts 329°
2026-05-09 09:08 -45.86227 -71.59013 5779 ft 245 kts 335°
2026-05-09 09:08 -45.84630 -71.59950 6189 ft 253 kts 335°
2026-05-09 09:08 -45.82943 -71.60937 6415 ft 269 kts 335°
2026-05-09 09:09 -45.81182 -71.61983 6954 ft 276 kts 335°
2026-05-09 09:09 -45.79398 -71.63057 7607 ft 280 kts 334°
2026-05-09 09:09 -45.77594 -71.64155 8213 ft 285 kts 334°
2026-05-09 09:09 -45.75768 -71.65276 8782 ft 292 kts 334°
2026-05-09 09:10 -45.73892 -71.66435 9383 ft 297 kts 334°
2026-05-09 09:10 -45.71990 -71.67614 9983 ft 302 kts 333°
2026-05-09 09:10 -45.70046 -71.68821 10515 ft 307 kts 333°
2026-05-09 09:10 -45.68039 -71.70071 10757 ft 325 kts 333°
2026-05-09 09:11 -45.65904 -71.71404 10932 ft 343 kts 333°
2026-05-09 09:11 -45.63676 -71.72790 11321 ft 354 kts 333°
2026-05-09 09:11 -45.61407 -71.74199 11888 ft 357 kts 333°
2026-05-09 09:11 -45.59109 -71.75623 12501 ft 361 kts 333°
2026-05-09 09:12 -45.56790 -71.77061 13059 ft 366 kts 333°
2026-05-09 09:12 -45.54466 -71.78502 13612 ft 370 kts 333°
2026-05-09 09:12 -45.52085 -71.79977 14156 ft 375 kts 333°
2026-05-09 09:12 -45.49680 -71.81465 14653 ft 379 kts 333°
2026-05-09 09:13 -45.47270 -71.82956 15186 ft 381 kts 333°
2026-05-09 09:13 -45.44828 -71.84464 15701 ft 385 kts 333°
2026-05-09 09:13 -45.43200 -71.85470 16021 ft 387 kts 333°
2026-05-09 09:13 -45.40739 -71.86989 16488 ft 391 kts 332°
2026-05-09 09:14 -45.37593 -71.88928 17102 ft 395 kts 332°
2026-05-09 09:14 -45.35056 -71.90490 17570 ft 399 kts 332°
2026-05-09 09:14 -45.32459 -71.91901 18043 ft 408 kts 344°
2026-05-09 09:14 -45.30547 -71.92235 18362 ft 415 kts 359°
2026-05-09 09:15 -45.27731 -71.91558 18848 ft 418 kts 21°
2026-05-09 09:15 -45.25186 -71.89518 19198 ft 419 kts 43°
2026-05-09 09:15 -45.23304 -71.86501 19610 ft 413 kts 63°
2026-05-09 09:15 -45.21894 -71.82960 20080 ft 412 kts 66°
2026-05-09 09:16 -45.20534 -71.79371 20501 ft 414 kts 66°
2026-05-09 09:16 -45.17796 -71.72107 21330 ft 420 kts 66°
2026-05-09 09:16 -45.16405 -71.68465 21755 ft 422 kts 66°
2026-05-09 09:17 -45.15012 -71.64852 22138 ft 425 kts 66°
2026-05-09 09:17 -45.13581 -71.61166 22528 ft 429 kts 66°
2026-05-09 09:17 -45.12140 -71.57468 22911 ft 431 kts 66°
2026-05-09 09:17 -45.10689 -71.53759 23308 ft 434 kts 66°
2026-05-09 09:18 -45.09216 -71.50004 23692 ft 437 kts 66°
2026-05-09 09:18 -45.07742 -71.46247 24044 ft 440 kts 66°
2026-05-09 09:18 -45.06253 -71.42457 24341 ft 443 kts 66°
2026-05-09 09:18 -45.04752 -71.38642 24651 ft 446 kts 66°
2026-05-09 09:19 -45.03242 -71.34809 24961 ft 448 kts 66°
2026-05-09 09:19 -45.01725 -71.30963 25251 ft 450 kts 66°
2026-05-09 09:19 -45.00238 -71.27197 25514 ft 453 kts 66°
2026-05-09 09:19 -44.98664 -71.23216 25808 ft 455 kts 66°
2026-05-09 09:20 -44.97138 -71.19363 26096 ft 457 kts 66°
2026-05-09 09:20 -44.95582 -71.15441 26372 ft 460 kts 66°
2026-05-09 09:20 -44.94016 -71.11498 26609 ft 463 kts 66°
2026-05-09 09:20 -44.92441 -71.07536 26885 ft 464 kts 66°
2026-05-09 09:21 -44.90859 -71.03563 27184 ft 466 kts 66°
2026-05-09 09:21 -44.89263 -70.99561 27456 ft 469 kts 66°
2026-05-09 09:21 -44.87659 -70.95545 27692 ft 471 kts 66°
2026-05-09 09:21 -44.86044 -70.91508 27956 ft 473 kts 66°
2026-05-09 09:22 -44.84446 -70.87518 28228 ft 475 kts 66°
2026-05-09 09:22 -44.82819 -70.83460 28471 ft 477 kts 66°
2026-05-09 09:22 -44.81183 -70.79386 28724 ft 479 kts 66°
2026-05-09 09:22 -44.79562 -70.75288 28971 ft 479 kts 69°
2026-05-09 09:23 -44.78160 -70.71038 29204 ft 477 kts 73°
2026-05-09 09:23 -44.76868 -70.66740 29443 ft 478 kts 74°
2026-05-09 09:23 -44.75612 -70.62415 29686 ft 479 kts 75°
2026-05-09 09:23 -44.74357 -70.58071 29910 ft 481 kts 75°
2026-05-09 09:24 -44.73089 -70.53722 30148 ft 482 kts 75°
2026-05-09 09:24 -44.71807 -70.49373 30352 ft 484 kts 74°
2026-05-09 09:24 -44.70551 -70.45158 30574 ft 486 kts 74°
2026-05-09 09:24 -44.69203 -70.40674 30840 ft 485 kts 74°
2026-05-09 09:25 -44.67886 -70.36316 31089 ft 485 kts 74°
2026-05-09 09:25 -44.66578 -70.32004 31285 ft 485 kts 75°
2026-05-09 09:25 -44.65238 -70.27587 31488 ft 486 kts 75°
2026-05-09 09:25 -44.63908 -70.23211 31695 ft 487 kts 75°
2026-05-09 09:26 -44.62576 -70.18837 31914 ft 487 kts 75°
2026-05-09 09:26 -44.61247 -70.14475 32116 ft 487 kts 75°
2026-05-09 09:26 -44.59928 -70.10154 32314 ft 488 kts 75°
2026-05-09 09:26 -44.58614 -70.05856 32514 ft 488 kts 75°
2026-05-09 09:27 -44.57258 -70.01429 32695 ft 489 kts 75°
2026-05-09 09:27 -44.55914 -69.97046 32844 ft 490 kts 75°
2026-05-09 09:27 -44.54568 -69.92663 33041 ft 490 kts 76°
2026-05-09 09:27 -44.53222 -69.88292 33251 ft 490 kts 76°
2026-05-09 09:28 -44.51878 -69.83935 33445 ft 490 kts 76°
2026-05-09 09:28 -44.50519 -69.79536 33491 ft 492 kts 76°
2026-05-09 09:28 -44.47822 -69.70823 33490 ft 491 kts 76°
2026-05-09 09:29 -44.45105 -69.62090 33491 ft 487 kts 76°
2026-05-09 09:29 -44.42404 -69.53433 33475 ft 484 kts 76°
2026-05-09 09:30 -44.39708 -69.44816 33487 ft 482 kts 76°
2026-05-09 09:30 -44.37026 -69.36260 33480 ft 482 kts 76°
2026-05-09 09:31 -44.34344 -69.27732 33473 ft 483 kts 76°
2026-05-09 09:32 -44.30276 -69.14858 33472 ft 485 kts 76°
2026-05-09 09:32 -44.27531 -69.06212 33483 ft 487 kts 76°
2026-05-09 09:33 -44.24795 -68.97621 33471 ft 489 kts 76°
2026-05-09 09:33 -44.22027 -68.88958 33470 ft 491 kts 76°
2026-05-09 09:34 -44.19281 -68.80398 33467 ft 492 kts 76°
2026-05-09 09:34 -44.16444 -68.71580 33464 ft 492 kts 76°
2026-05-09 09:36 -44.05234 -68.37029 33445 ft 487 kts 76°
2026-05-09 09:37 -44.02442 -68.28489 33450 ft 485 kts 76°
2026-05-09 09:37 -43.99651 -68.19981 33449 ft 484 kts 76°
2026-05-09 09:38 -43.96877 -68.11550 33448 ft 482 kts 77°
2026-05-09 09:38 -43.94089 -68.03101 33438 ft 482 kts 77°
2026-05-09 09:39 -43.91299 -67.94673 33447 ft 481 kts 77°
2026-05-09 09:39 -43.88581 -67.86489 33426 ft 482 kts 77°
2026-05-09 09:40 -43.85782 -67.78088 33421 ft 482 kts 77°
2026-05-09 09:40 -43.82987 -67.69720 33434 ft 483 kts 77°
2026-05-09 09:41 -43.80181 -67.61254 33425 ft 479 kts 80°
2026-05-09 09:41 -43.77999 -67.52726 33429 ft 471 kts 84°
2026-05-09 09:42 -43.76003 -67.44113 33426 ft 471 kts 85°
2026-05-09 09:42 -43.73970 -67.35482 33427 ft 472 kts 84°
2026-05-09 09:43 -43.71903 -67.26935 33427 ft 473 kts 84°
2026-05-09 09:43 -43.69790 -67.18302 33421 ft 473 kts 84°
2026-05-09 09:44 -43.67687 -67.09755 33402 ft 473 kts 84°
2026-05-09 09:44 -43.65568 -67.01173 33400 ft 472 kts 84°
2026-05-09 09:45 -43.63447 -66.92605 33391 ft 470 kts 84°
2026-05-09 09:45 -43.61329 -66.84078 33397 ft 469 kts 84°
2026-05-09 09:46 -43.59222 -66.75624 33389 ft 468 kts 84°
2026-05-09 09:46 -43.57102 -66.67148 33384 ft 467 kts 84°
2026-05-09 09:47 -43.54982 -66.58706 33383 ft 466 kts 84°
2026-05-09 09:47 -43.52869 -66.50320 33373 ft 465 kts 84°
2026-05-09 09:48 -43.50740 -66.41905 33368 ft 465 kts 84°
2026-05-09 09:48 -43.48616 -66.33535 33364 ft 465 kts 84°
2026-05-09 09:49 -43.46484 -66.25164 33366 ft 465 kts 84°
2026-05-09 09:49 -43.44335 -66.16754 33363 ft 465 kts 84°
2026-05-09 09:50 -43.42198 -66.08419 33355 ft 465 kts 84°
2026-05-09 09:50 -43.40033 -66.00011 33345 ft 466 kts 84°
2026-05-09 09:51 -43.37867 -65.91632 33350 ft 465 kts 84°
2026-05-09 09:51 -43.35697 -65.83265 33346 ft 465 kts 84°
2026-05-09 09:52 -43.33519 -65.74893 33336 ft 465 kts 84°
2026-05-09 09:52 -43.31335 -65.66527 33326 ft 465 kts 84°
2026-05-09 09:53 -43.29158 -65.58220 33321 ft 465 kts 84°
2026-05-09 09:53 -43.26964 -65.49876 33314 ft 466 kts 84°
2026-05-09 09:54 -43.24762 -65.41526 33304 ft 465 kts 84°
2026-05-09 09:54 -43.22568 -65.33238 33298 ft 465 kts 84°
2026-05-09 09:54 -43.21359 -65.29094 33271 ft 478 kts 76°
2026-05-09 09:55 -43.19472 -65.25216 33308 ft 503 kts 60°
2026-05-09 09:55 -43.16853 -65.21915 33271 ft 521 kts 43°
2026-05-09 09:55 -43.13702 -65.19385 33332 ft 526 kts 36°
2026-05-09 09:56 -43.07183 -65.14803 33301 ft 527 kts 34°
2026-05-09 09:56 -43.00659 -65.10226 33277 ft 525 kts 36°
2026-05-09 09:57 -42.94220 -65.05560 33297 ft 523 kts 36°
2026-05-09 09:57 -42.87839 -65.00877 33268 ft 523 kts 36°
2026-05-09 09:58 -42.81433 -64.96186 33281 ft 522 kts 36°
2026-05-09 09:58 -42.75071 -64.91551 33277 ft 522 kts 36°
2026-05-09 09:59 -42.68654 -64.86890 33277 ft 523 kts 36°
2026-05-09 09:59 -42.62223 -64.82230 33274 ft 524 kts 37°
2026-05-09 10:00 -42.55791 -64.77580 33274 ft 524 kts 37°
2026-05-09 10:00 -42.49390 -64.72963 33271 ft 525 kts 37°
2026-05-09 10:01 -42.42933 -64.68316 33259 ft 526 kts 37°
2026-05-09 10:01 -42.36459 -64.63675 33256 ft 527 kts 36°
2026-05-09 10:02 -42.29927 -64.59150 33249 ft 527 kts 35°
2026-05-09 10:02 -42.23374 -64.54684 33247 ft 527 kts 36°
2026-05-09 10:03 -42.16832 -64.50214 33226 ft 525 kts 35°
2026-05-09 10:03 -42.10365 -64.45789 33240 ft 524 kts 36°
2026-05-09 10:04 -42.03860 -64.41350 33253 ft 524 kts 36°
2026-05-09 10:04 -41.98413 -64.37640 33239 ft 523 kts 36°
2026-05-09 10:05 -41.91954 -64.33247 33241 ft 523 kts 36°
2026-05-09 10:05 -41.85452 -64.28837 33228 ft 523 kts 36°
2026-05-09 10:06 -41.78950 -64.24435 33233 ft 522 kts 36°
2026-05-09 10:06 -41.72447 -64.20044 33227 ft 522 kts 36°
2026-05-09 10:07 -41.65981 -64.15687 33234 ft 522 kts 36°
2026-05-09 10:07 -41.59486 -64.11320 33214 ft 523 kts 36°
2026-05-09 10:08 -41.52982 -64.06958 33224 ft 522 kts 36°
2026-05-09 10:08 -41.46488 -64.02613 33210 ft 522 kts 36°
2026-05-09 10:09 -41.40026 -63.98298 33216 ft 522 kts 36°
2026-05-09 10:09 -41.33531 -63.93971 33201 ft 521 kts 36°
2026-05-09 10:10 -41.27055 -63.89667 33210 ft 520 kts 35°
2026-05-09 10:10 -41.20622 -63.85400 33191 ft 519 kts 35°
2026-05-09 10:11 -41.14151 -63.81118 33199 ft 518 kts 34°
2026-05-09 10:11 -41.07740 -63.76885 33182 ft 516 kts 34°
2026-05-09 10:12 -41.01317 -63.72652 33188 ft 514 kts 34°
2026-05-09 10:12 -40.94940 -63.68457 33181 ft 511 kts 33°
2026-05-09 10:13 -40.88602 -63.64243 33176 ft 507 kts 35°
2026-05-09 10:13 -40.82467 -63.59825 33156 ft 501 kts 36°
2026-05-09 10:14 -40.76393 -63.55367 33169 ft 497 kts 36°
2026-05-09 10:14 -40.70334 -63.50968 33162 ft 494 kts 35°
2026-05-09 10:15 -40.64355 -63.46670 33168 ft 491 kts 34°
2026-05-09 10:15 -40.58341 -63.42366 33161 ft 489 kts 34°
2026-05-09 10:16 -40.52373 -63.38103 33161 ft 487 kts 34°
2026-05-09 10:16 -40.46473 -63.33895 33157 ft 485 kts 33°
2026-05-09 10:17 -40.40548 -63.29677 33161 ft 484 kts 33°
2026-05-09 10:17 -40.34621 -63.25466 33153 ft 483 kts 33°
2026-05-09 10:18 -40.28716 -63.21279 33159 ft 482 kts 32°
2026-05-09 10:18 -40.22809 -63.17100 33145 ft 481 kts 32°
2026-05-09 10:19 -40.16950 -63.12963 33150 ft 480 kts 32°
2026-05-09 10:19 -40.11066 -63.08817 33144 ft 479 kts 32°
2026-05-09 10:20 -40.05198 -63.04690 33143 ft 477 kts 31°
2026-05-09 10:20 -39.99397 -63.00618 33140 ft 476 kts 31°
2026-05-09 10:21 -39.93568 -62.96534 33141 ft 474 kts 31°
2026-05-09 10:21 -39.87762 -62.92475 33135 ft 472 kts 31°
2026-05-09 10:22 -39.81973 -62.88435 33137 ft 470 kts 30°
2026-05-09 10:22 -39.76255 -62.84452 33125 ft 469 kts 30°
2026-05-09 10:23 -39.70509 -62.80456 33136 ft 466 kts 30°
2026-05-09 10:23 -39.64788 -62.76486 33126 ft 465 kts 30°
2026-05-09 10:24 -39.59135 -62.72570 33127 ft 463 kts 29°
2026-05-09 10:24 -39.53459 -62.68644 33111 ft 461 kts 29°
2026-05-09 10:25 -39.47819 -62.64750 33127 ft 459 kts 29°
2026-05-09 10:25 -39.42237 -62.60877 33116 ft 457 kts 29°
2026-05-09 10:26 -39.36651 -62.56986 33120 ft 455 kts 29°
2026-05-09 10:26 -39.31071 -62.53099 33110 ft 454 kts 29°
2026-05-09 10:27 -39.25508 -62.49223 33117 ft 453 kts 29°
2026-05-09 10:27 -39.19979 -62.45376 33107 ft 453 kts 29°
2026-05-09 10:28 -39.14426 -62.41515 33117 ft 454 kts 29°
2026-05-09 10:28 -39.08862 -62.37655 33114 ft 455 kts 29°
2026-05-09 10:29 -39.03281 -62.33792 33114 ft 456 kts 29°
2026-05-09 10:29 -38.97697 -62.29935 33099 ft 457 kts 29°
2026-05-09 10:30 -38.92087 -62.26071 33094 ft 458 kts 29°
2026-05-09 10:30 -38.86459 -62.22200 33085 ft 459 kts 29°
2026-05-09 10:31 -38.80867 -62.18358 33087 ft 459 kts 29°
2026-05-09 10:31 -38.75232 -62.14487 33079 ft 459 kts 29°
2026-05-09 10:32 -38.69605 -62.10627 33080 ft 458 kts 29°
2026-05-09 10:32 -38.64031 -62.06808 33080 ft 456 kts 29°
2026-05-09 10:33 -38.58568 -62.02679 32179 ft 463 kts 44°
2026-05-09 10:33 -38.56476 -61.99579 31472 ft 460 kts 61°
2026-05-09 10:33 -38.55168 -61.95881 30742 ft 457 kts 79°
2026-05-09 10:33 -38.54751 -61.91895 29798 ft 451 kts 95°
2026-05-09 10:34 -38.55247 -61.87990 28973 ft 446 kts 111°
2026-05-09 10:34 -38.58701 -61.81644 27388 ft 436 kts 145°
2026-05-09 10:34 -38.61317 -61.79783 26622 ft 432 kts 162°
2026-05-09 10:35 -38.64190 -61.78973 25902 ft 430 kts 174°
2026-05-09 10:35 -38.67168 -61.78726 25187 ft 429 kts 178°
2026-05-09 10:35 -38.70150 -61.78616 24475 ft 428 kts 179°
2026-05-09 10:35 -38.73123 -61.78545 23784 ft 427 kts 179°
2026-05-09 10:36 -38.75986 -61.78506 23010 ft 425 kts 182°
2026-05-09 10:36 -38.78971 -61.79198 22170 ft 424 kts 198°
2026-05-09 10:36 -38.81688 -61.80650 21414 ft 423 kts 204°
2026-05-09 10:36 -38.84326 -61.82311 20795 ft 418 kts 205°
2026-05-09 10:37 -38.86862 -61.83982 20714 ft 401 kts 206°
2026-05-09 10:37 -38.89108 -61.85984 20572 ft 391 kts 222°
2026-05-09 10:37 -38.90688 -61.88749 20365 ft 387 kts 239°
2026-05-09 10:37 -38.91498 -61.92033 19822 ft 388 kts 258°
2026-05-09 10:38 -38.91407 -61.95431 19564 ft 387 kts 279°
2026-05-09 10:38 -38.90425 -61.98626 19100 ft 385 kts 300°
2026-05-09 10:38 -38.88968 -62.00858 18728 ft 382 kts 317°
2026-05-09 10:38 -38.86726 -62.02642 18230 ft 380 kts 337°
2026-05-09 10:39 -38.84223 -62.03638 17729 ft 374 kts 344°
2026-05-09 10:39 -38.81717 -62.04428 17135 ft 370 kts 345°
2026-05-09 10:39 -38.79193 -62.05180 16380 ft 372 kts 346°
2026-05-09 10:39 -38.76691 -62.05915 15632 ft 373 kts 346°
2026-05-09 10:40 -38.74152 -62.06654 14902 ft 374 kts 346°
2026-05-09 10:40 -38.71599 -62.07390 14176 ft 375 kts 346°
2026-05-09 10:40 -38.69050 -62.08120 13405 ft 375 kts 346°
2026-05-09 10:40 -38.66501 -62.08846 12615 ft 375 kts 346°
2026-05-09 10:41 -38.63956 -62.09567 11849 ft 374 kts 346°
2026-05-09 10:41 -38.61403 -62.10286 11091 ft 374 kts 346°
2026-05-09 10:41 -38.58897 -62.10987 10365 ft 373 kts 346°
2026-05-09 10:41 -38.56365 -62.11689 9609 ft 372 kts 346°
2026-05-09 10:42 -38.53889 -62.12580 8807 ft 368 kts 338°
2026-05-09 10:42 -38.51502 -62.13697 8042 ft 366 kts 336°
2026-05-09 10:42 -38.49117 -62.14853 7275 ft 365 kts 336°
2026-05-09 10:42 -38.46752 -62.16004 6540 ft 363 kts 336°
2026-05-09 10:43 -38.44399 -62.17149 5764 ft 362 kts 335°
2026-05-09 10:43 -38.42076 -62.18267 5345 ft 350 kts 335°
2026-05-09 10:43 -38.39856 -62.19317 5190 ft 332 kts 335°
2026-05-09 10:43 -38.37738 -62.20303 5047 ft 315 kts 335°
2026-05-09 10:44 -38.35758 -62.21208 5024 ft 297 kts 335°
2026-05-09 10:44 -38.33864 -62.22058 5001 ft 278 kts 336°
2026-05-09 10:44 -38.32091 -62.22840 4997 ft 260 kts 336°
2026-05-09 10:44 -38.30437 -62.23555 4998 ft 243 kts 336°
2026-05-09 10:45 -38.28843 -62.24234 5022 ft 239 kts 336°
2026-05-09 10:46 -38.22482 -62.26960 5053 ft 244 kts 335°
2026-05-09 10:46 -38.20879 -62.27650 5041 ft 245 kts 336°
2026-05-09 10:46 -38.19267 -62.28345 5041 ft 245 kts 335°
2026-05-09 10:46 -38.17653 -62.29039 5035 ft 244 kts 335°
2026-05-09 10:47 -38.16039 -62.29733 5034 ft 244 kts 335°
2026-05-09 10:47 -38.14457 -62.30412 5034 ft 243 kts 335°
2026-05-09 10:47 -38.12857 -62.31096 5033 ft 242 kts 335°
2026-05-09 10:47 -38.11259 -62.31777 5027 ft 241 kts 335°
2026-05-09 10:48 -38.09675 -62.32450 5035 ft 240 kts 335°
2026-05-09 10:48 -38.08100 -62.33117 5037 ft 239 kts 335°
2026-05-09 10:48 -38.06521 -62.33784 5043 ft 239 kts 335°
2026-05-09 10:48 -38.04940 -62.34450 5041 ft 239 kts 336°
2026-05-09 10:49 -38.03360 -62.35117 5047 ft 240 kts 335°
2026-05-09 10:49 -38.01801 -62.35775 5051 ft 241 kts 335°
2026-05-09 10:49 -38.00204 -62.36451 5051 ft 241 kts 335°
2026-05-09 10:49 -37.98613 -62.37126 5052 ft 242 kts 335°
2026-05-09 10:50 -37.97009 -62.37806 5059 ft 244 kts 335°
2026-05-09 10:50 -37.95398 -62.38488 5054 ft 245 kts 335°
2026-05-09 10:50 -37.93780 -62.39173 5054 ft 246 kts 335°
2026-05-09 10:50 -37.92175 -62.39852 5053 ft 246 kts 335°
2026-05-09 10:51 -37.90552 -62.40537 5050 ft 246 kts 335°
2026-05-09 10:51 -37.88925 -62.41222 5043 ft 246 kts 335°
2026-05-09 10:51 -37.87309 -62.41902 5042 ft 245 kts 335°
2026-05-09 10:51 -37.85695 -62.42577 5041 ft 244 kts 335°
2026-05-09 10:52 -37.84091 -62.43245 5048 ft 243 kts 335°
2026-05-09 10:52 -37.82483 -62.43913 5044 ft 242 kts 335°
2026-05-09 10:52 -37.80886 -62.44573 5046 ft 241 kts 335°
2026-05-09 10:52 -37.79306 -62.45226 5050 ft 241 kts 335°
2026-05-09 10:53 -37.78231 -62.45668 5052 ft 241 kts 335°
2026-05-09 10:53 -37.76118 -62.46535 5052 ft 241 kts 335°
2026-05-09 10:53 -37.74532 -62.47184 5058 ft 240 kts 334°
2026-05-09 10:53 -37.73557 -62.47783 5026 ft 229 kts 309°
2026-05-09 10:54 -37.72720 -62.49361 4665 ft 213 kts 270°
2026-05-09 10:54 -37.72928 -62.51046 4221 ft 186 kts 229°
2026-05-09 10:54 -37.73941 -62.51792 4081 ft 169 kts 186°
2026-05-09 10:54 -37.75138 -62.51619 4048 ft 175 kts 178°
2026-05-09 10:55 -37.76302 -62.51651 4036 ft 165 kts 209°
2026-05-09 10:55 -37.77100 -62.52690 4055 ft 170 kts 227°
2026-05-09 10:55 -37.77845 -62.53860 4064 ft 171 kts 226°
2026-05-09 10:55 -37.78635 -62.55077 4067 ft 190 kts 226°
2026-05-09 10:56 -37.79534 -62.56458 4080 ft 209 kts 227°
2026-05-09 10:56 -37.80459 -62.57888 4072 ft 212 kts 227°
2026-05-09 10:56 -37.81390 -62.59328 4062 ft 213 kts 227°
2026-05-09 10:56 -37.82328 -62.60782 4064 ft 212 kts 227°
2026-05-09 10:57 -37.83300 -62.62173 4064 ft 210 kts 215°
2026-05-09 10:57 -37.84649 -62.62802 4083 ft 209 kts 188°
2026-05-09 10:57 -37.86117 -62.62700 4074 ft 215 kts 172°
2026-05-09 10:57 -37.87531 -62.62051 4072 ft 220 kts 163°
2026-05-09 10:58 -37.88934 -62.61239 4062 ft 222 kts 162°
2026-05-09 10:58 -37.90332 -62.60403 4053 ft 222 kts 161°
2026-05-09 10:58 -37.91730 -62.59565 4065 ft 222 kts 162°
2026-05-09 10:58 -37.93135 -62.58728 4063 ft 224 kts 162°
2026-05-09 10:59 -37.94557 -62.57883 4067 ft 225 kts 162°
2026-05-09 10:59 -37.95959 -62.57053 4065 ft 226 kts 162°
2026-05-09 10:59 -37.97390 -62.56207 4066 ft 227 kts 162°
2026-05-09 10:59 -37.98831 -62.55356 4062 ft 227 kts 162°
2026-05-09 11:00 -38.00266 -62.54509 4071 ft 227 kts 162°
2026-05-09 11:00 -38.01701 -62.53663 4060 ft 227 kts 162°
2026-05-09 11:00 -38.03131 -62.52820 4059 ft 226 kts 162°
2026-05-09 11:00 -38.04555 -62.51981 4056 ft 225 kts 162°
2026-05-09 11:01 -38.05977 -62.51143 4056 ft 224 kts 162°
2026-05-09 11:01 -38.07385 -62.50312 4061 ft 222 kts 162°
2026-05-09 11:01 -38.08768 -62.49498 4059 ft 222 kts 162°
2026-05-09 11:01 -38.10170 -62.48672 4059 ft 222 kts 162°
2026-05-09 11:02 -38.11616 -62.47824 4086 ft 235 kts 162°
2026-05-09 11:02 -38.13096 -62.46954 4059 ft 233 kts 162°
2026-05-09 11:02 -38.14549 -62.46094 4046 ft 228 kts 162°
2026-05-09 11:02 -38.15975 -62.45250 4040 ft 224 kts 162°
2026-05-09 11:03 -38.17373 -62.44422 4092 ft 220 kts 162°
2026-05-09 11:03 -38.18749 -62.43611 3833 ft 213 kts 160°
2026-05-09 11:03 -38.20081 -62.42823 3955 ft 210 kts 160°
2026-05-09 11:03 -38.21400 -62.42045 4362 ft 215 kts 163°
2026-05-09 11:04 -38.22822 -62.41213 4240 ft 232 kts 162°
2026-05-09 11:04 -38.24286 -62.40350 4150 ft 231 kts 162°
2026-05-09 11:04 -38.25745 -62.39485 4091 ft 229 kts 162°
2026-05-09 11:04 -38.27187 -62.38629 4058 ft 227 kts 162°
2026-05-09 11:05 -38.28603 -62.37787 4042 ft 223 kts 162°
2026-05-09 11:05 -38.30005 -62.36955 4048 ft 222 kts 162°
2026-05-09 11:05 -38.31427 -62.36114 4061 ft 227 kts 162°
2026-05-09 11:05 -38.32850 -62.35273 4063 ft 229 kts 162°
2026-05-09 11:06 -38.34293 -62.34417 4041 ft 227 kts 162°
2026-05-09 11:06 -38.35722 -62.33567 4043 ft 226 kts 162°
2026-05-09 11:06 -38.37142 -62.32723 4036 ft 224 kts 162°
2026-05-09 11:06 -38.38549 -62.31887 4041 ft 223 kts 163°
2026-05-09 11:07 -38.39956 -62.31052 4042 ft 225 kts 162°
2026-05-09 11:07 -38.41390 -62.30202 4052 ft 229 kts 162°
2026-05-09 11:07 -38.42809 -62.29357 4047 ft 226 kts 162°
2026-05-09 11:07 -38.44212 -62.28518 4021 ft 218 kts 163°
2026-05-09 11:08 -38.45557 -62.27713 4005 ft 207 kts 163°
2026-05-09 11:08 -38.46829 -62.26952 4003 ft 197 kts 163°
2026-05-09 11:08 -38.48043 -62.26229 4014 ft 188 kts 164°
2026-05-09 11:08 -38.49217 -62.25531 4015 ft 185 kts 164°
2026-05-09 11:09 -38.50401 -62.24830 4022 ft 190 kts 163°
2026-05-09 11:09 -38.51618 -62.24109 3952 ft 197 kts 163°
2026-05-09 11:09 -38.52877 -62.23361 3728 ft 200 kts 163°
2026-05-09 11:09 -38.54141 -62.22605 3479 ft 199 kts 163°
2026-05-09 11:10 -38.55386 -62.21912 3249 ft 196 kts 168°
2026-05-09 11:10 -38.56656 -62.21355 3021 ft 192 kts 171°
2026-05-09 11:10 -38.57928 -62.20866 2806 ft 189 kts 172°
2026-05-09 11:10 -38.59189 -62.20395 2567 ft 189 kts 173°
2026-05-09 11:11 -38.60471 -62.19919 2339 ft 193 kts 172°
2026-05-09 11:11 -38.61765 -62.19435 2115 ft 195 kts 172°
2026-05-09 11:11 -38.63073 -62.18946 1874 ft 196 kts 172°
2026-05-09 11:11 -38.64387 -62.18455 1642 ft 197 kts 172°
2026-05-09 11:12 -38.65695 -62.17965 1329 ft 195 kts 171°
2026-05-09 11:12 -38.66992 -62.17480 1127 ft 194 kts 170°
2026-05-09 11:12 -38.68268 -62.17003 905 ft 192 kts 170°
2026-05-09 11:12 -38.69553 -62.16524 698 ft 192 kts 170°
2026-05-09 11:13 -38.70834 -62.16043 468 ft 191 kts 168°
2026-05-09 11:13 -38.72056 -62.15582 275 ft 171 kts 167°
2026-05-09 11:13 -38.73137 -62.15205 232 ft 147 kts 159°
2026-05-09 11:13 -38.73685 -62.15002 229 ft 1 kts 164°
2026-05-09 11:14 -38.73678 -62.15005 229 ft 0 kts 164°